Regional Weather Roundup
Issued by NWS Sioux Falls, SD

Home | Current Version | Previous Version | Text Only | Print | Product List | Glossary On
Versions: 1 2 3 4 5 6 7 8 9 10 11 12 13 14 15 16 17 18 19 20 21 22 23 24 25 26 27 28 29 30 31 32 33 34 35 36 37 38 39 40 41 42 43 44 45 46 47 48 49 50
983
ASUS43 KFSD 200010
RWRFSD

WEATHER ROUNDUP FOR SE SOUTH DAKOTA/SW MINNESOTA/NW IOWA
NATIONAL WEATHER SERVICE SIOUX FALLS SD
600 PM CST SUN NOV 19 2017

NOTE: "FAIR" INDICATES FEW OR NO CLOUDS BELOW 12,000 FEET WITH NO
SIGNIFICANT WEATHER AND OR OBSTRUCTIONS TO VISIBILITY.


SDZ038>040-050-052>070-200100-
SOUTHEAST SOUTH DAKOTA

CITY           SKY/WX    TMP DP  RH WIND       PRES   REMARKS
BROOKINGS      CLOUDY    40  25  55 S9        29.85F
CHAMBERLAIN    CLOUDY    41  24  51 CALM      29.83F
6HR MIN TEMP:  40; 6HR MAX TEMP:  56;

HURON          CLOUDY    43  23  45 S6        29.83F
6HR MIN TEMP:  43; 6HR MAX TEMP:  54;

MADISON        FAIR      41  25  52 SW7       29.86F
MITCHELL       CLOUDY    45  25  45 S6        29.86F
6HR MIN TEMP:  45; 6HR MAX TEMP:  54;

SIOUX FALLS    CLOUDY    45  26  47 SW5       29.87F
6HR MIN TEMP:  45; 6HR MAX TEMP:  52;

WINNER         FAIR      50  20  30 S7        29.84F
YANKTON        CLOUDY    46  25  43 CALM      29.89R
$$

MNZ071-072-080-081-089-090-097-098-200100-
SOUTHWEST MINNESOTA

CITY           SKY/WX    TMP DP  RH WIND       PRES   REMARKS
FAIRMONT       CLOUDY    38  26  62 SW9       29.91F
JACKSON        CLOUDY    37  27  65 CALM      29.90F
LUVERNE        CLOUDY    36  21  55 SW3       29.88F
MARSHALL       CLOUDY    42  25  50 SW12      29.85F
6HR MIN TEMP:  40; 6HR MAX TEMP:  51;

MONTEVIDEO     CLOUDY    39  25  56 SW7       29.84S
PIPESTONE      CLOUDY    36  21  55 SW5       29.86F
REDWOOD FALLS  CLOUDY    42  22  44 SW13      29.85F
WINDOM         CLOUDY    39  21  48 S8        29.89S
WORTHINGTON    CLOUDY    39  25  57 S7        29.89F
$$

IAZ001>003-012>014-020>022-031-032-NEZ013-014-SDZ071-200100-
NORTHWEST IOWA

CITY           SKY/WX    TMP DP  RH WIND       PRES   REMARKS
CHEROKEE       CLOUDY    41  29  63 S7        29.92F
DENISON        CLOUDY    43  28  56 S5        29.96F
ESTHERVILLE    CLOUDY    37  25  61 S12       29.91F
LE MARS        PTCLDY    43  27  52 S6        29.90F
ORANGE CITY    CLOUDY    43  27  52 S3        29.89F
SHELDON        CLOUDY    41  27  56 S6        29.88F
SIOUX CITY     CLOUDY    44  25  47 SW6       29.92F
6HR MIN TEMP:  43; 6HR MAX TEMP:  55;

SPENCER        CLOUDY    36  26  67 S7        29.91F
6HR MIN TEMP:  35; 6HR MAX TEMP:  50;

STORM LAKE     CLOUDY    39  27  60 S10       29.92F
$$

ABBREVIATIONS USED IN REMARKS
   TC - TEMPERATURE IN CELSIUS
  WCI - WIND CHILL INDEX
   HX - HEAT INDEX
  VSB - VISIBILITY





USA.gov is the U.S. government's official web portal to all federal, state and local government web resources and services.